Location: Summit Observatory
(39.5293°N, 75.7290°W)
Time: 03:08:09
(UTC-05:00)

Amateur Radio Satellites - All Passes

Search period start: 18 January 2017 02:38
Search period end: 19 January 2017 02:38
Location: Summit Observatory, 39.5293°N, 75.7290°W

Satellite Date Start Highest point End Downlink Frequencies (MHz)
Time Altitude Azimuth
BEESAT 18 Jan 02:47:00 02:51:10 30° 263° (W) 02:55:21 436.000
SWISSCUBE 18 Jan 02:48:34 02:52:32 26° 264° (W) 02:56:31 437.505
M-CUBED/EXP-1 PRIME 18 Jan 02:48:56 02:53:22 65° 70° (ENE) 02:57:33 437.505
PHONESAT 2.4 18 Jan 02:49:45 02:51:44 25° 157° (SSE) 02:53:44 2401.200-2431.200
Cosmos 2504 18 Jan 02:58:58 03:06:14 58° 268° (W) 03:13:11 435.465 / 435.565
ITAMSAT 1 18 Jan 03:03:24 03:08:32 57° 101° (E) 03:13:39 435.822/435.867
BEESAT 2 18 Jan 03:06:02 03:09:45 36° 245° (WSW) 03:13:27 435.950
MOZHAYETS 4 18 Jan 03:07:20 03:11:51 63° 259° (W) 03:16:25
PCSat 18 Jan 03:26:55 03:28:38 11° 321° (NW) 03:30:21 145.827
AUBIESAT-1 18 Jan 03:28:16 03:32:35 56° 254° (WSW) 03:36:40 437.475
STARS 18 Jan 03:32:59 03:36:59 35° 71° (ENE) 03:40:59 437.465
ISS 18 Jan 03:36:43 03:38:15 13° 14° (NNE) 03:39:48 145.825
CUBESAT XI-V 18 Jan 03:45:20 03:49:49 48° 73° (ENE) 03:54:22 437.345
YUBILEINY 18 Jan 03:49:18 03:54:17 17° 283° (WNW) 03:59:17 435.215
CUSAT 1 18 Jan 03:58:08 04:02:46 56° 285° (WNW) 04:08:53 437.405
AO-7 18 Jan 04:05:20 04:13:46 87° 287° (WNW) 04:22:06 29.400- 29.500
KKS-1 18 Jan 04:07:59 04:12:11 41° 261° (W) 04:16:24 437.445
DANDE 18 Jan 04:21:31 04:24:55 63° 96° (E) 04:29:29 436.750
RS-15 18 Jan 04:22:09 04:30:43 21° 353° (N) 04:39:20 29.354- 29.394
PHONESAT 2.4 18 Jan 04:23:28 04:25:46 78° 352° (N) 04:28:05 2401.200-2431.200
M-CUBED/EXP-1 PRIME 18 Jan 04:26:32 04:28:03 12° 263° (W) 04:29:32 437.505
Cosmos 2491 18 Jan 04:37:33 04:42:46 17° 298° (WNW) 04:48:01 435.465 / 435.565
AIST 2 18 Jan 04:38:25 04:42:27 41° 53° (NE) 04:46:28 435.215
ITAMSAT 1 18 Jan 04:44:06 04:47:31 18° 297° (WNW) 04:50:57 435.822/435.867
BRITE-PL 18 Jan 04:57:34 05:02:32 68° 100° (E) 05:07:05 437.365/2234.400
NOAA 15 18 Jan 04:57:41 04:58:56 11° 89° (E) 05:00:11 137.62
HORYU 2 18 Jan 05:09:38 05:13:48 38° 99° (E) 05:17:56 437.375
STARS 18 Jan 05:10:14 05:13:24 19° 266° (W) 05:16:35 437.465
ISS 18 Jan 05:12:16 05:15:23 43° 32° (NNE) 05:18:31 145.825
GOMX 1 18 Jan 05:16:03 05:20:13 37° 97° (E) 05:24:10 467.674
CUBESAT XI-V 18 Jan 05:24:30 05:27:27 16° 268° (W) 05:30:24 437.345
Cosmos 2499 18 Jan 05:28:10 05:32:27 16° 64° (ENE) 05:36:39 435.465 / 435.565
CUTE-I 18 Jan 05:33:32 05:37:55 25° 95° (E) 05:42:15 437.470
O/OREOS (USA 219) 18 Jan 05:36:14 05:38:34 14° 99° (E) 05:40:54 437.305
LilacSat-2 18 Jan 05:46:18 05:49:51 34° 97° (E) 05:53:23 437.200
PHONESAT 2.4 18 Jan 05:57:41 06:00:00 78° 8° (N) 06:02:18 2401.200-2431.200
NOAA 18 18 Jan 05:58:04 06:02:18 23° 95° (E) 06:06:30 137.9125
AO-7 18 Jan 05:59:48 06:05:22 20° 308° (NW) 06:10:56 29.400- 29.500
STRAND 1 18 Jan 06:01:18 06:06:01 40° 70° (ENE) 06:10:46 437.568
DOVE 4 18 Jan 06:08:56 06:13:03 53° 99° (E) 06:17:06 437.250
Cubesat XI-IV 18 Jan 06:15:10 06:20:27 61° 101° (ESE) 06:25:44 437.490
AIST 2 18 Jan 06:17:42 06:20:37 18° 250° (WSW) 06:23:31 435.215
CINEMA 3 18 Jan 06:21:17 06:23:46 15° 93° (E) 06:26:17 145.822/145.860
NOAA 15 18 Jan 06:33:59 06:39:20 85° 283° (WNW) 06:44:38 137.62
GONETS M04 18 Jan 06:36:32 06:44:59 47° 75° (ENE) 06:53:24
HO-68 18 Jan 06:37:03 06:42:23 22° 93° (E) 06:47:41 435.675
BRITE-PL 18 Jan 06:37:57 06:40:16 13° 299° (WNW) 06:42:31 437.365/2234.400
RS-15 18 Jan 06:38:50 06:49:10 29° 29° (NNE) 06:59:16 29.354- 29.394
HORYU 2 18 Jan 06:46:53 06:50:03 20° 294° (WNW) 06:53:13 437.375
ISS 18 Jan 06:49:18 06:51:39 19° 229° (SW) 06:54:01 145.825
CUTE 1.7 + AOD 2 18 Jan 06:50:57 06:54:02 19° 93° (E) 06:57:06 437.475
GOMX 1 18 Jan 06:54:55 06:57:59 18° 295° (WNW) 07:00:57 467.674
CUTE-I 18 Jan 07:13:06 07:18:02 39° 291° (WNW) 07:22:57 437.470
O/OREOS (USA 219) 18 Jan 07:13:08 07:17:30 50° 295° (WNW) 07:21:51 437.305
CANX-2 18 Jan 07:18:46 07:22:56 46° 99° (E) 07:27:03 2200.000
Cosmos 2499 18 Jan 07:19:19 07:26:30 80° 265° (W) 07:33:33 435.465 / 435.565
LilacSat-2 18 Jan 07:21:25 07:23:51 16° 293° (WNW) 07:26:16 437.200
PHONESAT 2.4 18 Jan 07:32:02 07:34:02 25° 204° (SSW) 07:36:02 2401.200-2431.200
CUBEBUG 2 18 Jan 07:33:13 07:36:43 23° 95° (E) 07:40:16 437.445
SEEDS 18 Jan 07:35:35 07:39:36 40° 98° (E) 07:43:36 437.485
NOAA 18 18 Jan 07:37:57 07:43:07 45° 290° (WNW) 07:48:16 137.9125
STRAND 1 18 Jan 07:41:21 07:45:19 23° 266° (W) 07:49:18 437.568
COMPASS 1 18 Jan 07:46:14 07:50:06 34° 97° (E) 07:53:55 437.405
DOVE 4 18 Jan 07:48:34 07:50:16 12° 297° (WNW) 07:51:57 437.250
SO-50 18 Jan 07:56:19 08:00:49 43° 116° (ESE) 08:05:14 436.795
Cubesat XI-IV 18 Jan 07:56:35 08:00:00 17° 298° (WNW) 08:03:24 437.490
CINEMA 3 18 Jan 07:57:10 08:01:05 40° 287° (WNW) 08:05:03 145.822/145.860
AAUSAT CUBESAT 2 18 Jan 08:00:13 08:04:08 37° 98° (E) 08:08:01 437.432
UWE-3 18 Jan 08:06:53 08:10:53 35° 98° (E) 08:14:57 435.000/436.395/437.385
FUNcube-1 18 Jan 08:10:37 08:13:58 21° 94° (E) 08:17:20 145.935
UNISAT 6 18 Jan 08:13:01 08:15:04 13° 64° (ENE) 08:17:06 437.425
NOAA 15 18 Jan 08:16:47 08:18:14 11° 302° (WNW) 08:19:42 137.62
HO-68 18 Jan 08:23:29 08:30:36 67° 290° (WNW) 08:37:40 435.675
CUTE 1.7 + AOD 2 18 Jan 08:26:02 08:29:57 34° 289° (WNW) 08:33:50 437.475
TIGRISAT 18 Jan 08:26:22 08:29:08 17° 66° (ENE) 08:31:56 435.000
ZACube-1 18 Jan 08:31:33 08:35:40 39° 98° (E) 08:39:50 437.345
GONETS M04 18 Jan 08:33:44 08:41:32 37° 274° (W) 08:49:22
PRISM 18 Jan 08:34:34 08:38:43 84° 77° (ENE) 08:42:55 437.425
ANTELSAT 18 Jan 08:40:04 08:43:35 26° 69° (ENE) 08:47:06 437.575/2403.000
PCSat 18 Jan 08:45:43 08:48:41 15° 42° (NE) 08:51:38 145.827
RS-15 18 Jan 08:51:40 09:04:07 78° 57° (ENE) 09:16:01 29.354- 29.394
JAS-2 18 Jan 08:55:32 08:58:38 16° 59° (ENE) 09:01:53 435.910
CANX-2 18 Jan 08:55:51 08:58:22 15° 295° (WNW) 09:00:52 2200.000
HUMSAT D 18 Jan 09:06:53 09:09:15 14° 92° (E) 09:11:38 437.325/437.525
CUBEBUG 2 18 Jan 09:09:36 09:13:18 29° 290° (WNW) 09:17:05 437.445
SEEDS 18 Jan 09:12:12 09:14:58 17° 294° (WNW) 09:17:42 437.485
Oscar 11 18 Jan 09:12:45 09:17:08 84° 286° (WNW) 09:21:29 145.826/435.025
Cosmos 2499 18 Jan 09:16:56 09:18:15 11° 284° (WNW) 09:19:35 435.465 / 435.565
COMPASS 1 18 Jan 09:22:23 09:25:23 19° 293° (WNW) 09:28:21 437.405
AAUSAT CUBESAT 2 18 Jan 09:36:31 09:39:17 17° 293° (WNW) 09:42:03 437.432
SO-50 18 Jan 09:37:39 09:41:26 24° 313° (NW) 09:45:12 436.795
DELFI C3 18 Jan 09:39:55 09:43:55 66° 101° (E) 09:47:51 145.870
UWE-3 18 Jan 09:43:56 09:47:06 20° 292° (WNW) 09:50:20 435.000/436.395/437.385
FUNcube-1 18 Jan 09:46:19 09:50:13 33° 289° (WNW) 09:54:11 145.935
UNISAT 6 18 Jan 09:47:09 09:51:19 52° 260° (W) 09:55:30 437.425
TIGRISAT 18 Jan 10:01:33 10:05:33 38° 262° (W) 10:09:31 435.000
ZACube-1 18 Jan 10:08:40 10:11:39 18° 293° (WNW) 10:14:41 437.345
QB50P1 18 Jan 10:10:38 10:14:02 24° 69° (ENE) 10:17:27 145.935-145.965
POLYITAN 1 18 Jan 10:13:50 10:17:22 27° 69° (ENE) 10:20:53 437.675
HO-68 18 Jan 10:14:15 10:16:59 12° 309° (NW) 10:19:42 435.675
QB50P2 18 Jan 10:14:51 10:18:29 29° 70° (ENE) 10:22:08 145.880/145.840
ANTELSAT 18 Jan 10:16:42 10:20:13 25° 264° (W) 10:23:45 437.575/2403.000
BY70-1 18 Jan 10:22:36 10:25:15 21° 95° (E) 10:27:47 436.1900
PCSat 18 Jan 10:27:27 10:32:55 84° 62° (ENE) 10:38:20 145.827
POPSAT HIP 1 18 Jan 10:36:34 10:40:35 47° 73° (ENE) 10:44:37 437.405
JAS-2 18 Jan 10:37:48 10:42:59 67° 259° (WSW) 10:48:39 435.910
HUMSAT D 18 Jan 10:40:59 10:45:04 45° 287° (WNW) 10:49:10 437.325/437.525
DUCHIFAT 1 18 Jan 10:50:28 10:54:34 59° 75° (ENE) 10:58:41 145.980
ESTCUBE 1 18 Jan 10:52:49 10:56:45 28° 96° (E) 11:00:38 437.505/2401.250
NANOSAT C BR1 18 Jan 10:54:37 10:58:47 73° 75° (ENE) 11:02:57 145.865
RS-15 18 Jan 11:05:35 11:15:19 30° 258° (WSW) 11:24:48 29.354- 29.394
VELOX 1 18 Jan 11:15:41 11:18:36 17° 93° (E) 11:21:29 145.980
BUGSAT 1 18 Jan 11:35:15 11:39:18 68° 75° (ENE) 11:43:20 437.445
QB50P1 18 Jan 11:46:11 11:49:42 26° 264° (W) 11:53:14 145.935-145.965
POLYITAN 1 18 Jan 11:49:43 11:53:05 23° 265° (W) 11:56:28 437.675
QB50P2 18 Jan 11:51:02 11:54:16 21° 265° (W) 11:57:31 145.880/145.840
BY70-1 18 Jan 11:53:04 11:55:28 18° 292° (WNW) 11:57:48 436.1900
DX 1 18 Jan 11:55:35 11:58:59 22° 95° (E) 12:02:22 434.975-435.025
Gurwin Techsat 1B 18 Jan 11:59:56 12:03:38 20° 63° (ENE) 12:07:20 435.225
UKube-1 18 Jan 11:59:59 12:02:56 18° 94° (E) 12:05:50 .
SPROUT 18 Jan 12:01:53 12:05:55 41° 99° (E) 12:09:57 437.525
Oscar 19 18 Jan 12:04:00 12:08:46 38° 69° (ENE) 12:13:34 437.125/150
CUBEBUG 1 18 Jan 12:07:26 12:11:46 73° 284° (WNW) 12:16:02 437.445
PCSat 18 Jan 12:13:37 12:15:30 12° 258° (WSW) 12:17:23 145.827
POPSAT HIP 1 18 Jan 12:14:34 12:16:36 13° 268° (W) 12:18:40 437.405
AISAT 18 Jan 12:17:17 12:21:42 90° 270° (W) 12:26:04 437.250
ESTCUBE 1 18 Jan 12:29:40 12:33:26 26° 292° (WNW) 12:37:11 437.505/2401.250
DUCHIFAT 1 18 Jan 12:29:51 12:30:36 10° 270° (W) 12:31:21 145.980
50 SAT 18 Jan 12:36:53 12:40:25 60° 286° (WNW) 12:43:54 437.505
Cosmos 2491 18 Jan 12:47:28 12:55:51 46° 75° (ENE) 13:04:12 435.465 / 435.565
CUSAT 1 18 Jan 12:50:25 12:56:02 21° 63° (ENE) 13:01:30 437.405
VELOX 1 18 Jan 12:51:05 12:55:12 40° 289° (WNW) 12:59:17 145.980
YUBILEINY 18 Jan 12:56:00 13:02:07 21° 79° (E) 13:08:14 435.215
AO-7 18 Jan 13:12:41 13:19:16 27° 56° (NE) 13:25:52 29.400- 29.500
DANDE 18 Jan 13:17:54 13:20:33 12° 61° (ENE) 13:23:17 436.750
DX 1 18 Jan 13:31:22 13:35:10 30° 291° (WNW) 13:38:58 434.975-435.025
UKube-1 18 Jan 13:35:06 13:39:04 37° 289° (WNW) 13:43:02 .
Gurwin Techsat 1B 18 Jan 13:37:57 13:43:08 53° 260° (W) 13:48:21 435.225
TISAT 1 18 Jan 13:38:13 13:42:23 72° 102° (ESE) 13:46:32 437.305
SPROUT 18 Jan 13:38:50 13:41:30 16° 294° (WNW) 13:44:10 437.525
AO-85 18 Jan 13:39:45 13:44:03 33° 115° (ESE) 13:48:04 145.980
Cosmos 2504 18 Jan 13:43:44 13:50:09 24° 82° (E) 13:56:18 435.465 / 435.565
Oscar 19 18 Jan 13:43:57 13:48:09 25° 265° (W) 13:52:24 437.125/150
AIST 1 18 Jan 14:04:24 14:08:46 77° 97° (E) 14:13:08
ITUPSAT 1 18 Jan 14:11:17 14:15:29 29° 96° (E) 14:19:40 437.325
ITAMSAT 1 18 Jan 14:20:24 14:25:34 80° 74° (ENE) 14:30:45 435.822/435.867
CUSAT 1 18 Jan 14:30:54 14:38:56 87° 262° (W) 14:46:27 437.405
BRITE-PL 18 Jan 14:33:09 14:33:55 10° 58° (ENE) 14:34:41 437.365/2234.400
Cosmos 2491 18 Jan 14:44:40 14:52:27 37° 274° (W) 15:00:16 435.465 / 435.565
BEESAT 18 Jan 14:47:05 14:51:53 72° 102° (ESE) 14:56:39 436.000
SWISSCUBE 18 Jan 14:48:28 14:53:18 83° 104° (ESE) 14:58:06 437.505
YUBILEINY 18 Jan 14:49:04 14:57:51 77° 278° (W) 15:06:46 435.215
DANDE 18 Jan 14:56:57 15:04:30 60° 78° (ENE) 15:12:45 436.750
AO-7 18 Jan 15:02:57 15:11:17 72° 254° (WSW) 15:19:41 29.400- 29.500
MOZHAYETS 4 18 Jan 15:03:21 15:07:31 32° 97° (E) 15:11:38
AO-85 18 Jan 15:20:26 15:24:27 28° 309° (NW) 15:28:14 145.980
Cosmos 2504 18 Jan 15:34:03 15:42:47 71° 279° (W) 15:51:04 435.465 / 435.565
CUBESAT XI-V 18 Jan 15:44:36 15:46:41 13° 90° (E) 15:48:46 437.345
O/OREOS (USA 219) 18 Jan 15:45:05 15:48:48 25° 60° (ENE) 15:52:32 437.305
ITUPSAT 1 18 Jan 15:49:08 15:53:13 28° 292° (WNW) 15:57:17 437.325
KKS-1 18 Jan 15:59:34 16:03:41 38° 98° (E) 16:07:48 437.445
Cubesat XI-IV 18 Jan 16:00:22 16:02:18 12° 59° (ENE) 16:04:13 437.490
M-CUBED/EXP-1 PRIME 18 Jan 16:03:29 16:06:44 45° 104° (ESE) 16:09:53 437.505
ITAMSAT 1 18 Jan 16:04:09 16:05:35 11° 270° (W) 16:07:02 435.822/435.867
BRITE-PL 18 Jan 16:05:43 16:11:22 71° 75° (ENE) 16:17:01 437.365/2234.400
HORYU 2 18 Jan 16:06:46 16:10:39 32° 70° (ENE) 16:14:34 437.375
CUSAT 1 18 Jan 16:15:01 16:19:42 17° 280° (W) 16:24:15 437.405
NOAA 15 18 Jan 16:15:38 16:19:07 18° 62° (ENE) 16:22:38 137.62
BEESAT 3 18 Jan 16:16:28 16:20:04 38° 116° (ESE) 16:23:43 437.485
JUGNU 18 Jan 16:16:55 16:17:51 10° 178° (S) 16:18:47 437.505
GOMX 1 18 Jan 16:21:54 16:27:01 43° 72° (ENE) 16:31:57 467.674
BEESAT 18 Jan 16:26:59 16:29:02 13° 299° (WNW) 16:31:06 436.000
LilacSat-2 18 Jan 16:28:26 16:30:41 15° 67° (ENE) 16:32:58 437.200
SO-50 18 Jan 16:28:38 16:32:39 30° 50° (NE) 16:36:36 436.795
SWISSCUBE 18 Jan 16:29:04 16:30:21 11° 300° (WNW) 16:31:40 437.505
DANDE 18 Jan 16:40:23 16:46:52 30° 272° (W) 16:53:47 436.750
MOZHAYETS 4 18 Jan 16:40:44 16:44:30 25° 292° (WNW) 16:48:14
AUBIESAT-1 18 Jan 16:42:02 16:45:23 61° 291° (WNW) 16:48:38 437.475
YUBILEINY 18 Jan 16:51:42 16:56:17 15° 300° (WNW) 17:00:54 435.215
CUTE-I 18 Jan 16:54:20 16:59:11 38° 69° (ENE) 17:04:04 437.470
BEESAT 2 18 Jan 16:56:11 16:59:56 44° 116° (ESE) 17:03:44 435.950
STARS 18 Jan 16:58:49 17:03:12 79° 101° (ESE) 17:07:34 437.465
AO-7 18 Jan 17:02:35 17:05:21 12° 272° (W) 17:08:09 29.400- 29.500
HO-68 18 Jan 17:06:39 17:10:47 16° 54° (NE) 17:14:56 435.675
DOVE 4 18 Jan 17:12:29 17:17:24 52° 74° (ENE) 17:22:06 437.250
CUBESAT XI-V 18 Jan 17:19:48 17:24:27 60° 285° (WNW) 17:29:02 437.345
CINEMA 3 18 Jan 17:22:42 17:25:02 14° 66° (ENE) 17:27:20 145.822/145.860
NOAA 18 18 Jan 17:23:06 17:28:13 40° 69° (ENE) 17:33:19 137.9125
O/OREOS (USA 219) 18 Jan 17:24:16 17:28:11 30° 256° (WSW) 17:32:08 437.305
Cosmos 2504 18 Jan 17:33:54 17:37:36 13° 299° (WNW) 17:41:14 435.465 / 435.565
Cubesat XI-IV 18 Jan 17:36:14 17:41:34 89° 254° (WSW) 17:46:55 437.490
KKS-1 18 Jan 17:36:50 17:39:58 19° 294° (WNW) 17:43:05 437.445
HORYU 2 18 Jan 17:43:49 17:47:13 22° 265° (W) 17:50:40 437.375
CUTE 1.7 + AOD 2 18 Jan 17:43:58 17:45:52 13° 64° (ENE) 17:47:46 437.475
BRITE-PL 18 Jan 17:47:00 17:50:16 16° 271° (W) 17:53:34 437.365/2234.400
NOAA 15 18 Jan 17:53:13 17:58:24 58° 259° (WSW) 18:03:39 137.62
BEESAT 3 18 Jan 17:54:57 17:57:49 19° 313° (NW) 18:00:43 437.485
GOMX 1 18 Jan 18:00:50 18:05:09 24° 266° (W) 18:09:23 467.674
LilacSat-2 18 Jan 18:01:15 18:04:41 33° 263° (W) 18:08:09 437.200
Cosmos 2499 18 Jan 18:05:13 18:09:35 15° 79° (E) 18:13:49 435.465 / 435.565
SO-50 18 Jan 18:09:11 18:13:01 28° 247° (WSW) 18:16:49 436.795
CANX-2 18 Jan 18:10:41 18:14:21 29° 70° (ENE) 18:18:03 2200.000
STRAND 1 18 Jan 18:14:01 18:16:47 14° 91° (E) 18:19:32 437.568
SEEDS 18 Jan 18:26:33 18:29:59 25° 69° (ENE) 18:33:27 437.485
CUBEBUG 2 18 Jan 18:31:21 18:34:05 17° 67° (ENE) 18:36:49 437.445
CUTE-I 18 Jan 18:34:56 18:39:18 26° 265° (W) 18:43:41 437.470
BEESAT 2 18 Jan 18:35:13 18:37:55 18° 314° (NW) 18:40:41 435.950
COMPASS 1 18 Jan 18:36:23 18:39:33 21° 68° (ENE) 18:42:44 437.405
AAUSAT CUBESAT 2 18 Jan 18:49:45 18:53:01 23° 69° (ENE) 18:56:18 437.432
HO-68 18 Jan 18:50:15 18:57:27 84° 73° (ENE) 19:04:42 435.675
DOVE 4 18 Jan 18:52:06 18:55:17 17° 267° (W) 18:58:23 437.250
CINEMA 3 18 Jan 18:57:24 19:01:47 51° 260° (W) 19:06:01 145.822/145.860
UWE-3 18 Jan 19:03:31 19:06:52 24° 69° (ENE) 19:10:13 435.000/436.395/437.385
NOAA 18 18 Jan 19:04:26 19:08:57 26° 265° (W) 19:13:29 137.9125
FUNcube-1 18 Jan 19:06:28 19:08:40 14° 65° (ENE) 19:10:53 145.935
CUTE 1.7 + AOD 2 18 Jan 19:17:03 19:21:12 55° 260° (W) 19:25:24 437.475
ZACube-1 18 Jan 19:26:54 19:30:20 26° 70° (ENE) 19:33:47 437.345
SRMSAT 18 Jan 19:30:19 19:31:21 10° 183° (S) 19:32:23 437.500
GONETS M04 18 Jan 19:36:10 19:44:32 55° 90° (E) 19:52:59
CANX-2 18 Jan 19:46:51 19:50:11 22° 266° (W) 19:53:32 2200.000
STRAND 1 18 Jan 19:51:16 19:56:21 63° 287° (WNW) 20:01:26 437.568
Cosmos 2499 18 Jan 19:53:04 20:01:38 86° 95° (E) 20:09:37 435.465 / 435.565
SEEDS 18 Jan 20:02:04 20:05:34 26° 265° (W) 20:09:08 437.485
Oscar 11 18 Jan 20:06:11 20:10:26 64° 75° (ENE) 20:14:44 145.826/435.025
CUBEBUG 2 18 Jan 20:06:32 20:10:26 36° 262° (W) 20:14:17 437.445
COMPASS 1 18 Jan 20:11:12 20:14:53 30° 264° (W) 20:18:38 437.405
AIST 2 18 Jan 20:12:45 20:16:50 70° 302° (WNW) 20:21:01 435.215
PRISM 18 Jan 20:18:57 20:20:30 12° 91° (E) 20:22:03 437.425
DELFI C3 18 Jan 20:24:31 20:28:05 32° 71° (ENE) 20:31:41 145.870
AAUSAT CUBESAT 2 18 Jan 20:24:45 20:28:19 28° 264° (W) 20:31:57 437.432
UWE-3 18 Jan 20:39:48 20:43:14 25° 264° (W) 20:46:41 435.000/436.395/437.385
FUNcube-1 18 Jan 20:40:34 20:44:31 45° 261° (W) 20:48:30 145.935
HO-68 18 Jan 20:41:42 20:45:56 16° 270° (W) 20:50:11 435.675
ZACube-1 18 Jan 21:03:17 21:06:35 23° 265° (W) 21:09:54 437.345
HUMSAT D 18 Jan 21:30:43 21:34:47 77° 257° (WSW) 21:38:57 437.325/437.525
GONETS M04 18 Jan 21:34:15 21:41:44 31° 290° (WNW) 21:49:18
UNISAT 6 18 Jan 21:39:24 21:43:23 32° 97° (E) 21:47:26 437.425
Oscar 11 18 Jan 21:46:33 21:46:59 10° 270° (W) 21:47:26 145.826/435.025
JAS-2 18 Jan 21:47:06 21:52:20 21° 92° (E) 21:57:49 435.910
Cosmos 2499 18 Jan 21:50:13 21:55:38 18° 294° (WNW) 22:00:52 435.465 / 435.565
ESTCUBE 1 18 Jan 21:51:36 21:55:13 24° 68° (ENE) 21:58:52 437.505/2401.250
PRISM 18 Jan 21:52:05 21:56:05 50° 287° (WNW) 22:00:02 437.425
ISS 18 Jan 21:52:07 21:54:36 20° 132° (SE) 21:57:06 145.825
TIGRISAT 18 Jan 21:53:12 21:57:25 42° 99° (E) 22:01:41 435.000
DELFI C3 18 Jan 22:00:11 22:02:56 18° 267° (W) 22:05:43 145.870
BY70-1 18 Jan 22:06:03 22:08:55 64° 76° (ENE) 22:12:04 436.1900
ANTELSAT 18 Jan 22:07:47 22:12:12 67° 101° (E) 22:16:42 437.575/2403.000
AO-85 18 Jan 22:12:19 22:15:15 20° 47° (NE) 22:18:10 145.980
VELOX 1 18 Jan 22:12:39 22:15:11 15° 64° (ENE) 22:17:42 145.980
NANOSAT C BR1 18 Jan 22:41:41 22:43:24 12° 91° (E) 22:45:08 145.865
DX 1 18 Jan 22:50:38 22:53:39 18° 66° (ENE) 22:56:39 434.975-435.025
UKube-1 18 Jan 22:54:19 22:56:41 15° 64° (ENE) 22:59:04 .
SPROUT 18 Jan 22:54:30 22:58:08 28° 70° (ENE) 23:01:48 437.525
CUBEBUG 1 18 Jan 23:01:53 23:06:18 81° 75° (ENE) 23:10:43 437.445
50 SAT 18 Jan 23:10:22 23:13:45 41° 73° (ENE) 23:17:09 437.505
RS-15 18 Jan 23:12:43 23:24:00 55° 111° (ESE) 23:35:46 29.354- 29.394
AISAT 18 Jan 23:13:12 23:17:38 71° 75° (ENE) 23:22:05 437.250
UNISAT 6 18 Jan 23:16:28 23:19:55 23° 292° (WNW) 23:23:24 437.425
ISS 18 Jan 23:27:48 23:30:54 40° 328° (NNW) 23:34:00 145.825
ESTCUBE 1 18 Jan 23:27:51 23:31:52 31° 263° (W) 23:35:55 437.505/2401.250
PCSat 18 Jan 23:29:00 23:30:41 11° 102° (ESE) 23:32:21 145.827
JAS-2 18 Jan 23:30:39 23:37:45 75° 286° (WNW) 23:45:29 435.910
QB50P1 18 Jan 23:30:48 23:34:54 50° 100° (E) 23:39:00 145.935-145.965
TIGRISAT 18 Jan 23:30:51 23:33:47 18° 294° (WNW) 23:36:45 435.000
POLYITAN 1 18 Jan 23:34:17 23:38:28 56° 100° (E) 23:42:37 437.675
QB50P2 18 Jan 23:35:27 23:39:39 63° 101° (E) 23:43:50 145.880/145.840
ANTELSAT 18 Jan 23:46:44 23:48:22 12° 297° (WNW) 23:50:01 437.575/2403.000
VELOX 1 18 Jan 23:46:51 23:51:11 51° 260° (W) 23:55:32 145.980
AO-85 18 Jan 23:52:11 23:55:44 34° 245° (WSW) 23:59:18 145.980
POPSAT HIP 1 18 Jan 23:57:28 00:01:41 80° 283° (WNW) 00:05:54 437.405
DUCHIFAT 1 19 Jan 00:10:42 00:14:52 64° 285° (WNW) 00:19:01 145.980
AIST 1 19 Jan 00:13:26 00:16:13 17° 72° (ENE) 00:18:58
NANOSAT C BR1 19 Jan 00:15:19 00:19:24 51° 286° (WNW) 00:23:30 145.865
Oscar 19 19 Jan 00:17:58 00:20:35 14° 91° (E) 00:23:12 437.125/150
DX 1 19 Jan 00:25:25 00:29:31 39° 261° (W) 00:33:38 434.975-435.025
UKube-1 19 Jan 00:28:05 00:32:17 50° 260° (W) 00:36:30 .
TISAT 1 19 Jan 00:28:39 00:32:38 45° 73° (ENE) 00:36:37 437.305
SPROUT 19 Jan 00:30:39 00:34:02 23° 265° (W) 00:37:25 437.525
BEESAT 3 19 Jan 00:34:27 00:37:24 19° 47° (NE) 00:40:21 437.485
50 SAT 19 Jan 00:46:17 00:47:10 11° 268° (W) 00:48:02 437.505
BUGSAT 1 19 Jan 00:52:56 00:56:54 59° 285° (WNW) 01:00:53 437.445
YUBILEINY 19 Jan 01:00:35 01:09:11 52° 77° (ENE) 01:17:39 435.215
ISS 19 Jan 01:06:36 01:08:04 12° 347° (NNW) 01:09:32 145.825
PCSat 19 Jan 01:07:50 01:13:15 86° 297° (WNW) 01:18:43 145.827
QB50P1 19 Jan 01:08:06 01:10:14 14° 295° (WNW) 01:12:21 145.935-145.965
POLYITAN 1 19 Jan 01:11:56 01:13:45 13° 296° (WNW) 01:15:35 437.675
QB50P2 19 Jan 01:13:32 01:14:54 11° 297° (WNW) 01:16:16 145.880/145.840
BEESAT 2 19 Jan 01:15:00 01:18:13 22° 48° (NE) 01:21:26 435.950
ITUPSAT 1 19 Jan 01:17:09 01:21:19 31° 69° (ENE) 01:25:31 437.325
JAS-2 19 Jan 01:18:10 01:21:47 15° 302° (WNW) 01:25:33 435.910
RS-15 19 Jan 01:25:17 01:36:44 49° 314° (NW) 01:48:37 29.354- 29.394
Cosmos 2504 19 Jan 01:28:46 01:35:37 38° 74° (ENE) 01:42:11 435.465 / 435.565
Cosmos 2491 19 Jan 01:47:16 01:55:37 55° 90° (E) 02:04:02 435.465 / 435.565
AIST 1 19 Jan 01:50:01 01:53:57 36° 268° (W) 01:57:50
BEESAT 19 Jan 01:52:20 01:57:03 74° 76° (ENE) 02:01:50 436.000
SWISSCUBE 19 Jan 01:53:46 01:58:30 86° 79° (E) 02:03:18 437.505
CUSAT 1 19 Jan 01:54:05 01:55:27 11° 76° (ENE) 01:56:52 437.405
AUBIESAT-1 19 Jan 01:54:25 01:56:08 12° 60° (ENE) 01:57:49 437.475
Gurwin Techsat 1B 19 Jan 01:54:52 02:00:10 66° 102° (ESE) 02:05:26 435.225
Oscar 19 19 Jan 01:55:13 02:00:21 66° 287° (WNW) 02:05:26 437.125/150
MOZHAYETS 4 19 Jan 02:04:27 02:08:17 27° 69° (ENE) 02:12:10
TISAT 1 19 Jan 02:06:20 02:08:29 14° 268° (W) 02:10:38 437.305
BEESAT 3 19 Jan 02:11:25 02:15:10 39° 244° (WSW) 02:18:53 437.485
